Skip Page Navigation
NASA JPL Caltech
NASA Logo - Jet Propulsion Laboratory + View the NASA Portal
+ Near-Earth Object (NEO) Program
Search JPL
JPL Home Earth Solar System Stars & Galaxies Technology
JPL Solar System Dynamics
BODIES ORBITS EPHEMERIDES TOOLS PHYSICAL DATA DISCOVERY FAQ SITE MAP
JPL Small-Body Database Browser
Search: [ help ]  
7303 (1993 FS1)
Classification: Main-belt Asteroid          SPK-ID: 2007303
Ephemeris | Orbit Diagram | Orbital Elements | Physical Parameters | Discovery Circumstances | Close-Approach Data ]

[ show orbit diagram ]
Orbital Elements at Epoch 2457400.5 (2016-Jan-13.0) TDB
Reference: JPL 16 (heliocentric ecliptic J2000)
 Element Value Uncertainty (1-sigma)   Units 
e .09617241807979038 5.097e-08  
a 3.041051023530135 2.5113e-08 au
q 2.748585793093221 1.615e-07 au
i 11.61825888620313 5.9902e-06 deg
node 150.9208006719493 2.699e-05 deg
peri 100.1084439504426 4.3147e-05 deg
M 49.75718760713243 3.1796e-05 deg
tp 2457132.775996035627
(2015-Apr-20.27599604)
0.00017183 JED
period 1937.01947521967
5.30
2.3994e-05
6.569e-08
d
yr
n .1858525454211935 2.3022e-09 deg/d
Q 3.33351625396705 2.7529e-08 au
  Orbit Determination Parameters
   # obs. used (total)      1169  
   data-arc span      16711 days (45.75 yr)  
   first obs. used      1969-11-10  
   last obs. used      2015-08-12  
   planetary ephem.      DE431  
   SB-pert. ephem.      SB431-BIG16  
   condition code      0  
   fit RMS      .51663  
   data source      ORB  
   producer      Otto Matic  
   solution date      2015-Sep-02 14:21:42  

Additional Information
 Earth MOID = 1.76388 au 
 Jupiter MOID = 1.8201 au 
 T_jup = 3.202 
[ show covariance matrix ]

Ephemeris | Orbit Diagram | Orbital Elements | Physical Parameters | Discovery Circumstances | Close-Approach Data ]

Physical Parameter Table
Parameter Symbol Value Units Sigma Reference Notes
absolute magnitude H 12.3 mag n/a MPO344360  

7303 (1993 FS1)          Discovered 1993-Mar-25 by Ueda, S., Kaneda, H. at Kushiro
Reference: DISCOVERY.DBLast Updated: 2003-08-29

[ show close-approach data ]
Alternate Designations
 1993 FS1 = 1951 JC1 = 1969 VE3 = 1989 RF2 
Ephemeris | Orbit Diagram | Orbital Elements | Physical Parameters | Discovery Circumstances | Close-Approach Data ]
ABOUT SSD CREDITS/AWARDS PRIVACY/COPYRIGHT GLOSSARY LINKS
FirstGov 2016-Feb-11 10:44 UT
(server date/time)  
NASA Home Page
Site Manager:   Ryan S. Park
Webmaster  Alan B. Chamberlin